| time (UTC) | temp C | wind direction | speed KPH | gust KPH | rain 1hr cm | rain 24hr cm | rain mn cm | humidity % | barometer mb |
| 20260504130433 | 21 | 38 | 16.1 | 24.1 | 0.00 | 2.77 | 0.00 | 83 | 1017.9 |
| 20260504110405 | 19 | 63 | 8.0 | 20.9 | 0.00 | 2.77 | 0.00 | 89 | 1016.8 |
| 20260504081832 | 19 | 130 | 3.2 | 11.3 | 0.00 | 2.77 | 0.00 | 93 | 1016.7 |
| 20260504081331 | 19 | 128 | 4.8 | 12.9 | 0.00 | 2.77 | 0.00 | 93 | 1016.8 |
| 20260504081141 | 19 | 119 | 6.4 | 12.9 | 0.00 | 2.77 | 0.00 | 93 | 1016.9 |
| 20260504080332 | 19 | 109 | 6.4 | 9.7 | 0.00 | 2.77 | 0.00 | 93 | 1017.0 |
| 20260504050409 | 19 | 130 | 11.3 | 14.5 | 0.05 | 2.74 | 2.74 | 93 | 1019.4 |
| 20260504045619 | 19 | 122 | 4.8 | 12.9 | 0.05 | 2.69 | 2.74 | 93 | 1019.6 |
| 20260504045119 | 19 | 135 | 6.4 | 12.9 | 0.08 | 2.69 | 2.74 | 93 | 1019.6 |
| 20260504044303 | 19 | 126 | 6.4 | 12.9 | 0.08 | 2.69 | 2.74 | 93 | 1019.8 |
| 20260504043803 | 19 | 90 | 6.4 | 12.9 | 0.10 | 2.69 | 2.72 | 93 | 1019.8 |
| 20260504043303 | 19 | 107 | 3.2 | 11.3 | 0.08 | 2.69 | 2.72 | 93 | 1019.9 |
| 20260504043249 | 19 | 101 | 6.4 | 12.9 | 0.10 | 2.69 | 2.72 | 93 | 1019.9 |
| 20260504042905 | 19 | 103 | 6.4 | 11.3 | 0.10 | 2.69 | 2.72 | 93 | 1019.9 |
| 20260504042224 | 20 | 115 | 12.9 | 20.9 | 0.15 | 2.69 | 2.69 | 92 | 1019.8 |
| 20260504041835 | 19 | 99 | 9.7 | 17.7 | 0.13 | 2.69 | 2.72 | 93 | 1020.0 |
| 20260504041436 | 19 | 82 | 12.9 | 17.7 | 0.13 | 2.69 | 2.69 | 92 | 1020.0 |
| 20260504040620 | 19 | 106 | 11.3 | 20.9 | 0.15 | 2.69 | 2.69 | 92 | 1019.9 |
| 20260504035748 | 19 | 71 | 14.5 | 19.3 | 0.15 | 2.51 | 2.69 | 93 | 1020.1 |
| 20260504035248 | 19 | 56 | 8.0 | 14.5 | 0.18 | 2.51 | 2.69 | 93 | 1020.0 |
| 20260504034935 | 20 | 107 | 4.8 | 12.9 | 0.20 | 2.51 | 2.67 | 94 | 1020.1 |
| 20260504034859 | 20 | 87 | 3.2 | 9.7 | 0.18 | 2.51 | 2.67 | 93 | 1020.1 |
| 20260504033744 | 19 | 108 | 6.4 | 12.9 | 0.20 | 2.51 | 2.64 | 94 | 1020.0 |
| 20260504033239 | 19 | 146 | 4.8 | 12.9 | 0.23 | 2.51 | 2.64 | 94 | 1019.9 |
| 20260504032731 | 19 | 138 | 6.4 | 12.9 | 0.23 | 2.51 | 2.62 | 94 | 1020.0 |
| 20260504032232 | 19 | 150 | 3.2 | 8.0 | 0.23 | 2.51 | 2.59 | 94 | 1020.0 |
| 20260504031731 | 19 | 148 | 3.2 | 11.3 | 0.23 | 2.51 | 2.59 | 95 | 1019.9 |
| 20260504031246 | 19 | 146 | 6.4 | 14.5 | 0.23 | 2.51 | 2.57 | 95 | 1019.9 |
| 20260504030732 | 19 | 131 | 8.0 | 14.5 | 0.25 | 2.51 | 2.57 | 95 | 1019.9 |
| 20260504030230 | 19 | 133 | 8.0 | 12.9 | 0.25 | 2.51 | 2.51 | 95 | 1019.8 |
| 20260504025732 | 19 | 106 | 4.8 | 6.4 | 0.28 | 2.26 | 2.51 | 95 | 1019.8 |
| 20260504025233 | 19 | 103 | 3.2 | 6.4 | 0.28 | 2.26 | 2.49 | 95 | 1019.9 |
| 20260504024733 | 19 | 103 | 3.2 | 4.8 | 0.28 | 2.26 | 2.49 | 95 | 1019.8 |
| 20260504024247 | 19 | 103 | 3.2 | 4.8 | 0.28 | 2.26 | 2.46 | 95 | 1019.8 |
| 20260504023732 | 19 | 103 | 3.2 | 4.8 | 0.28 | 2.26 | 2.44 | 95 | 1019.8 |
| 20260504023232 | 19 | 103 | 1.6 | 4.8 | 0.30 | 2.26 | 2.41 | 95 | 1019.8 |
| 20260504022732 | 19 | 103 | 1.6 | 6.4 | 0.30 | 2.26 | 2.39 | 95 | 1019.8 |
| 20260504022231 | 19 | 103 | 3.2 | 6.4 | 0.30 | 2.26 | 2.39 | 95 | 1019.7 |
| 20260504021731 | 19 | 103 | 1.6 | 11.3 | 0.30 | 2.26 | 2.36 | 95 | 1019.6 |
| 20260504021231 | 19 | 103 | 3.2 | 11.3 | 0.30 | 2.26 | 2.34 | 95 | 1019.6 |
| 20260504020735 | 19 | 102 | 3.2 | 6.4 | 0.28 | 2.26 | 2.31 | 95 | 1019.5 |
| 20260504020231 | 19 | 102 | 3.2 | 9.7 | 0.28 | 2.26 | 2.29 | 95 | 1019.4 |
| 20260504015732 | 19 | 102 | 4.8 | 11.3 | 0.25 | 1.98 | 2.24 | 95 | 1019.4 |
| 20260504015548 | 19 | 101 | 6.4 | 11.3 | 0.28 | 1.98 | 2.21 | 95 | 1019.2 |
| 20260504014731 | 19 | 94 | 3.2 | 14.5 | 0.28 | 1.98 | 2.21 | 95 | 1019.2 |
| 20260504014539 | 19 | 94 | 4.8 | 14.5 | 0.28 | 1.98 | 2.18 | 95 | 1019.2 |
| 20260504013732 | 20 | 96 | 8.0 | 12.9 | 0.30 | 1.98 | 2.16 | 95 | 1019.2 |
| 20260504013231 | 20 | 113 | 6.4 | 11.3 | 0.30 | 1.98 | 2.11 | 95 | 1019.1 |
| 20260504012731 | 20 | 121 | 6.4 | 11.3 | 0.33 | 1.98 | 2.11 | 95 | 1019.1 |
| 20260504012232 | 20 | 128 | 3.2 | 12.9 | 0.33 | 1.98 | 2.08 | 95 | 1019.1 |
| 20260504011845 | 20 | 103 | 3.2 | 6.4 | 0.33 | 1.65 | 1.98 | 95 | 1019.0 |
| 20260504011835 | 20 | 132 | 6.4 | 14.5 | 0.33 | 1.98 | 2.03 | 95 | 1019.0 |
| 20260504011809 | 20 | 130 | 6.4 | 12.9 | 0.33 | 1.98 | 2.06 | 95 | 1019.0 |
| 20260504011143 | 20 | 99 | 4.8 | 14.5 | 0.33 | 1.98 | 2.03 | 95 | 1019.0 |
| 20260504010326 | 20 | 134 | 4.8 | 8.0 | 0.33 | 1.98 | 2.01 | 95 | 1019.0 |
| 20260504005540 | 20 | 101 | 3.2 | 14.5 | 0.30 | 1.65 | 1.93 | 95 | 1018.9 |
| 20260504004717 | 19 | 100 | 8.0 | 14.5 | 0.30 | 1.68 | 1.93 | 95 | 1018.7 |
| 20260504004213 | 19 | 105 | 4.8 | 11.3 | 0.30 | 1.68 | 1.91 | 95 | 1018.7 |
| 20260504003710 | 19 | 110 | 6.4 | 11.3 | 0.33 | 1.68 | 1.83 | 95 | 1018.6 |
| 20260504003207 | 19 | 110 | 6.4 | 11.3 | 0.36 | 1.68 | 1.80 | 95 | 1018.5 |
| 20260504003029 | 19 | 86 | 4.8 | 12.9 | 0.38 | 1.68 | 1.78 | 95 | 1018.3 |
| 20260504002527 | 19 | 86 | 6.4 | 12.9 | 0.41 | 1.70 | 1.75 | 95 | 1018.3 |
| 20260504001704 | 19 | 59 | 6.4 | 12.9 | 0.46 | 1.70 | 1.73 | 94 | 1018.3 |
| 20260504001525 | 19 | 106 | 8.0 | 20.9 | 0.66 | 1.70 | 1.70 | 95 | 1018.3 |
| 20260504001025 | 19 | 121 | 12.9 | 20.9 | 0.69 | 1.70 | 1.68 | 95 | 1018.3 |
| 20260504000204 | 20 | 144 | 4.8 | 11.3 | 0.69 | 1.73 | 1.65 | 95 | 1018.3 |
| 20260503235703 | 20 | 127 | 6.4 | 11.3 | 0.69 | 1.07 | 1.65 | 95 | 1018.3 |
| 20260503235525 | 20 | 105 | 3.2 | 6.4 | 0.69 | 1.09 | 1.65 | 95 | 1018.2 |
| 20260503235109 | 19 | 103 | 1.6 | 4.8 | 0.69 | 1.09 | 1.57 | 94 | 1018.0 |
| 20260503234703 | 19 | 103 | 1.6 | 4.8 | 0.69 | 1.09 | 1.63 | 95 | 1018.0 |
| 20260503234527 | 19 | 103 | 1.6 | 4.8 | 0.69 | 1.09 | 1.57 | 94 | 1018.0 |
| 20260503233702 | 19 | 103 | 1.6 | 9.7 | 0.66 | 1.09 | 1.52 | 94 | 1017.8 |
| 20260503233524 | 19 | 103 | 3.2 | 9.7 | 0.58 | 1.12 | 1.45 | 94 | 1017.8 |
| 20260503232706 | 19 | 147 | 1.6 | 8.0 | 0.53 | 1.12 | 1.40 | 94 | 1017.8 |
| 20260503232204 | 20 | 148 | 4.8 | 12.9 | 0.51 | 1.12 | 1.35 | 94 | 1017.7 |
| 20260503232027 | 20 | 130 | 8.0 | 12.9 | 0.43 | 1.12 | 1.22 | 94 | 1017.7 |
| 20260503231203 | 20 | 123 | 4.8 | 8.0 | 0.23 | 1.12 | 1.02 | 94 | 1017.7 |
| 20260503230703 | 20 | 122 | 1.6 | 8.0 | 0.28 | 1.12 | 0.99 | 94 | 1017.6 |
| 20260503230205 | 20 | 123 | 4.8 | 8.0 | 0.28 | 1.12 | 0.99 | 94 | 1017.3 |
| 20260503225707 | 20 | 124 | 0.0 | 8.0 | 0.43 | 0.79 | 0.99 | 94 | 1017.3 |
| 20260503225203 | 20 | 125 | 4.8 | 9.7 | 0.69 | 0.79 | 0.97 | 94 | 1017.2 |
| 20260503224703 | 20 | 54 | 4.8 | 9.7 | 0.81 | 0.79 | 0.94 | 93 | 1017.2 |
| 20260503224203 | 20 | 126 | 4.8 | 8.0 | 0.91 | 0.79 | 0.89 | 94 | 1017.3 |
| 20260503223703 | 20 | 125 | 3.2 | 9.7 | 0.89 | 0.81 | 0.89 | 94 | 1017.2 |
| 20260503223653 | 20 | 102 | 4.8 | 6.4 | 0.86 | 0.81 | 0.86 | 93 | 1017.1 |
| 20260503223302 | 20 | 116 | 4.8 | 9.7 | 0.89 | 0.81 | 0.86 | 93 | 1017.2 |
| 20260503222205 | 20 | 90 | 3.2 | 6.4 | 0.84 | 0.81 | 0.84 | 93 | 1017.0 |
| 20260503221704 | 20 | 90 | 3.2 | 8.0 | 0.84 | 0.81 | 0.81 | 93 | 1016.9 |
| 20260503221202 | 20 | 71 | 4.8 | 8.0 | 0.79 | 0.81 | 0.79 | 92 | 1016.9 |
| 20260503221110 | 21 | 324 | 1.6 | 8.0 | 0.71 | 0.81 | 0.71 | 92 | 1017.0 |
| 20260503220203 | 21 | 324 | 6.4 | 8.0 | 0.71 | 0.81 | 0.71 | 92 | 1017.1 |
| 20260503215709 | 21 | 327 | 3.2 | 6.4 | 0.56 | 0.15 | 0.51 | 91 | 1017.3 |
| 20260503215519 | 21 | 327 | 4.8 | 6.4 | 0.28 | 0.15 | 0.23 | 90 | 1017.3 |
| 20260503214705 | 21 | 325 | 1.6 | 12.9 | 0.13 | 0.15 | 0.08 | 89 | 1017.2 |
| 20260503214527 | 21 | 325 | 4.8 | 12.9 | 0.00 | 0.15 | 0.00 | 88 | 1017.1 |
| 20260503214056 | 21 | 314 | 6.4 | 12.9 | 0.00 | 0.15 | 0.00 | 88 | 1017.0 |
| 20260503213641 | 21 | 75 | 3.2 | 14.5 | 0.00 | 0.15 | 0.00 | 87 | 1017.0 |
| 20260503213633 | 21 | 350 | 4.8 | 14.5 | 0.00 | 0.15 | 0.00 | 87 | 1017.0 |
| 20260503212145 | 21 | 79 | 4.8 | 19.3 | 0.00 | 0.15 | 0.00 | 87 | 1016.9 |
| 20260503211642 | 22 | 322 | 11.3 | 20.9 | 0.00 | 0.15 | 0.00 | 86 | 1017.0 |
| 20260503211140 | 22 | 325 | 11.3 | 20.9 | 0.00 | 0.15 | 0.00 | 86 | 1017.0 |
| 20260503210634 | 22 | 305 | 9.7 | 20.9 | 0.00 | 0.15 | 0.00 | 85 | 1016.8 |
| 20260503210132 | 23 | 317 | 9.7 | 20.9 | 0.00 | 0.15 | 0.00 | 85 | 1016.8 |
| 20260503205950 | 23 | 323 | 8.0 | 19.3 | 0.00 | 0.15 | 0.00 | 85 | 1016.8 |
| 20260503205425 | 23 | 85 | 8.0 | 17.7 | 0.00 | 0.15 | 0.00 | 81 | 1016.9 |
| 20260503205414 | 23 | 56 | 9.7 | 19.3 | 0.00 | 0.18 | 0.00 | 78 | 1017.2 |
| 20260503205322 | 23 | 98 | 9.7 | 17.7 | 0.00 | 0.15 | 0.00 | 82 | 1016.8 |
| 20260503205041 | 23 | 66 | 9.7 | 19.3 | 0.00 | 0.15 | 0.00 | 79 | 1017.2 |
| 20260503203131 | 23 | 55 | 9.7 | 22.5 | 0.00 | 0.18 | 0.00 | 78 | 1017.0 |
| 20260503202952 | 24 | 81 | 12.9 | 35.4 | 0.00 | 0.18 | 0.00 | 78 | 1017.0 |
| 20260503202131 | 24 | 59 | 17.7 | 35.4 | 0.00 | 0.18 | 0.00 | 76 | 1016.9 |
| 20260503201631 | 25 | 78 | 17.7 | 25.7 | 0.00 | 0.18 | 0.00 | 75 | 1016.8 |
| 20260503201131 | 25 | 67 | 11.3 | 27.4 | 0.00 | 0.20 | 0.00 | 73 | 1016.8 |
| 20260503200631 | 25 | 113 | 11.3 | 30.6 | 0.00 | 0.20 | 0.00 | 73 | 1016.8 |
| 20260503200131 | 25 | 38 | 14.5 | 30.6 | 0.00 | 0.20 | 0.00 | 71 | 1016.9 |
| 20260503195631 | 25 | 92 | 17.7 | 27.4 | 0.00 | 0.20 | 0.00 | 70 | 1016.9 |
| 20260503195131 | 25 | 107 | 14.5 | 29.0 | 0.00 | 0.20 | 0.00 | 70 | 1016.9 |
| 20260503194631 | 26 | 90 | 19.3 | 29.0 | 0.00 | 0.20 | 0.00 | 68 | 1017.0 |
| 20260503194454 | 26 | 62 | 12.9 | 22.5 | 0.00 | 0.20 | 0.00 | 69 | 1017.0 |
| 20260503193915 | 26 | 75 | 19.3 | 29.0 | 0.00 | 0.20 | 0.00 | 68 | 1017.1 |
| 20260503193815 | 26 | 105 | 9.7 | 29.0 | 0.00 | 0.20 | 0.00 | 68 | 1017.0 |
| 20260503192631 | 26 | 110 | 16.1 | 24.1 | 0.00 | 0.20 | 0.00 | 69 | 1017.1 |
| 20260503192331 | 25 | 99 | 6.4 | 17.7 | 0.00 | 0.20 | 0.00 | 71 | 1017.2 |
| 20260503192244 | 25 | 61 | 12.9 | 20.9 | 0.00 | 0.20 | 0.00 | 68 | 1017.2 |
| 20260503191130 | 25 | 80 | 9.7 | 17.7 | 0.00 | 0.20 | 0.00 | 72 | 1017.3 |
| 20260503190631 | 24 | 53 | 9.7 | 29.0 | 0.00 | 0.20 | 0.00 | 75 | 1017.6 |
| 20260503190131 | 24 | 77 | 14.5 | 29.0 | 0.00 | 0.20 | 0.00 | 75 | 1017.7 |
| 20260503185632 | 25 | 58 | 16.1 | 24.1 | 0.00 | 0.20 | 0.00 | 72 | 1017.8 |
| 20260503185131 | 25 | 92 | 12.9 | 20.9 | 0.00 | 0.20 | 0.00 | 71 | 1017.9 |
| 20260503184820 | 25 | 44 | 8.0 | 17.7 | 0.00 | 0.20 | 0.00 | 72 | 1017.9 |
| 20260503184736 | 25 | 94 | 11.3 | 19.3 | 0.00 | 0.20 | 0.00 | 72 | 1017.8 |
| 20260503183709 | 27 | 86 | 9.7 | 19.3 | 0.00 | 0.20 | 0.00 | 63 | 1018.3 |
| 20260503183645 | 25 | 63 | 11.3 | 20.9 | 0.00 | 0.20 | 0.00 | 70 | 1017.9 |
| 20260503183206 | 25 | 96 | 14.5 | 20.9 | 0.00 | 0.20 | 0.00 | 68 | 1017.9 |
| 20260503182759 | 26 | 79 | 12.9 | 22.5 | 0.00 | 0.20 | 0.00 | 67 | 1017.9 |
| 20260503182135 | 26 | 32 | 11.3 | 22.5 | 0.00 | 0.20 | 0.00 | 66 | 1018.1 |
| 20260503181730 | 26 | 62 | 9.7 | 19.3 | 0.00 | 0.20 | 0.00 | 65 | 1018.2 |
| 20260503180711 | 27 | 106 | 9.7 | 14.5 | 0.00 | 0.20 | 0.00 | 61 | 1018.7 |
| 20260503180704 | 27 | 87 | 8.0 | 20.9 | 0.00 | 0.20 | 0.00 | 62 | 1018.6 |
| 20260503180642 | 27 | 49 | 9.7 | 20.9 | 0.00 | 0.20 | 0.00 | 62 | 1018.5 |
| 20260503175109 | 27 | 82 | 3.2 | 14.5 | 0.00 | 0.20 | 0.00 | 62 | 1018.8 |
| 20260503174611 | 27 | 130 | 8.0 | 16.1 | 0.00 | 0.20 | 0.00 | 62 | 1018.9 |
| 20260503174106 | 27 | 297 | 4.8 | 16.1 | 0.00 | 0.20 | 0.00 | 63 | 1019.1 |
| 20260503173840 | 27 | 55 | 6.4 | 11.3 | 0.00 | 0.20 | 0.00 | 63 | 1019.1 |
| 20260503173740 | 26 | 340 | 4.8 | 16.1 | 0.00 | 0.20 | 0.00 | 64 | 1019.1 |
| 20260503172604 | 27 | 181 | 4.8 | 14.5 | 0.00 | 0.20 | 0.00 | 63 | 1019.4 |
| 20260503172443 | 27 | 83 | 4.8 | 11.3 | 0.00 | 0.20 | 0.00 | 62 | 1019.5 |
| 20260503172436 | 27 | 123 | 6.4 | 11.3 | 0.00 | 0.20 | 0.00 | 64 | 1019.4 |
| 20260503172107 | 27 | 105 | 3.2 | 14.5 | 0.00 | 0.20 | 0.00 | 61 | 1019.4 |
| 20260503170952 | 26 | 265 | 3.2 | 20.9 | 0.00 | 0.20 | 0.00 | 67 | 1019.5 |
| 20260503170132 | 25 | 23 | 8.0 | 20.9 | 0.00 | 0.20 | 0.00 | 67 | 1019.6 |
| 20260503150935 | 23 | 60 | 1.6 | 11.3 | 0.00 | 0.20 | 0.00 | 75 | 1020.5 |
| 20260503150105 | 22 | 115 | 4.8 | 9.7 | 0.00 | 0.20 | 0.00 | 74 | 1020.5 |
| 20260503140104 | 22 | 110 | 3.2 | 6.4 | 0.00 | 0.20 | 0.00 | 76 | 1020.3 |